Content
SEND FEEDBACK

Daily
Averages
Monthly
Summary
United States of America

EL PASO, TEXAS


Home > North America > United States > Texas
Elevation: 3918 feet     Latitude: 31 48N     Longitude: 106 24W

WEATHER
 
SELECT A DAY
Number of Records: 172,185;   Date Range: 1/1/95 - 9/16/14
 
SHARE

PRINT THIS DATA

[ ← Previous Day ]
WEATHER ALMANAC - APRIL 5, 2013
[ Next Day → ]
[ °C ]   °F
Weather ElementAverageHighLow
Temperature73.2 °F86 °F (4:51 pm)60.1 °F (3:51 am)
Dewpoint13.9 °F25 °F (8:51 am)6.1 °F (4:51 pm)
Humidity11.7 %22 % (7:51 am)5 % (4:51 pm)
Barometer29.81 in29.94 in (7:51 am)29.68 in (6:51 pm)
Wind Speed10.5 mph21.9 mph (3:51 pm)
Wind Gust33.4 mph (4:51 pm)
Weather ElementAverage
Visibility10 mi
Wind DirectionSSE (163.5 °)

Weather ElementTotal
Precipitation---
Cooling Degree Days8.1 (Base 65)
Growing Degree Days23.1 (Base 50)
Averaged from 23 records on April 5, 2013
WEATHER CONDITIONS BREAKOUT
WIND DIRECTION BREAKOUT
WEATHER BY HOUR - APRIL 5, 2013
[ °C ]   °F
Local TimeTemperatureDewpointHumidityBarometerVisibilityWind DirectionWind SpeedGust SpeedPrecipitationEventsConditions
1:51 AM63.0 °F10.0 °F13 %29.92 in10.0 miCalmOvercast
2:51 AM61.0 °F10.0 °F13 %29.91 in10.0 miWSW (240°)3.5 mphOvercast
3:51 AM60.1 °F9.0 °F13 %29.91 in10.0 miCalmOvercast
4:51 AM61.0 °F10.9 °F14 %29.90 in10.0 miCalmOvercast
5:51 AM60.1 °F16.0 °F18 %29.91 in10.0 miCalmOvercast
6:51 AM60.1 °F18.0 °F20 %29.91 in10.0 miCalmMostly Cloudy
7:51 AM61.0 °F21.9 °F22 %29.94 in10.0 miCalmMostly Cloudy
8:51 AM64.9 °F25.0 °F22 %29.92 in10.0 miSSE (150°)8.1 mphMostly Cloudy
9:51 AM70.0 °F24.1 °F18 %29.91 in10.0 miSSE (150°)15.0 mph24.2 mphMostly Cloudy
10:51 AM73.9 °F23.0 °F15 %29.89 in10.0 miSSE (150°)13.8 mph23.0 mphOvercast
11:51 AM78.1 °F19.9 °F11 %29.86 in10.0 miSouth (170°)16.1 mph25.3 mphMostly Cloudy
12:51 PM81.0 °F16.0 °F9 %29.82 in10.0 miSouth (180°)16.1 mphMostly Cloudy
1:51 PM82.9 °F14.0 °F8 %29.78 in10.0 miWSW (240°)11.5 mph24.2 mphMostly Cloudy
2:51 PM84.0 °F10.0 °F6 %29.75 in10.0 miSSW (200°)15.0 mphMostly Cloudy
3:51 PM82.9 °F8.1 °F6 %29.72 in10.0 miWSW (240°)21.9 mph27.6 mphMostly Cloudy
4:51 PM86.0 °F6.1 °F5 %29.69 in10.0 miWest (260°)20.7 mph33.4 mphMostly Cloudy
5:51 PM84.9 °F6.1 °F5 %29.69 in10.0 miSW (230°)15.0 mph21.9 mphScattered Clouds
6:51 PM82.9 °F8.1 °F6 %29.68 in10.0 miSW (230°)12.7 mphScattered Clouds
7:51 PM81.0 °F6.1 °F6 %29.69 in10.0 miWest (270°)12.7 mph27.6 mphPartly Cloudy
8:51 PM79.0 °F12.9 °F8 %29.70 in10.0 miWest (260°)13.8 mph23.0 mphPartly Cloudy
9:51 PM73.9 °F12.9 °F10 %29.73 in10.0 miSW (230°)9.2 mphClear
10:51 PM75.9 °F14.0 °F10 %29.73 in10.0 miWest (280°)16.1 mphPartly Cloudy
11:51 PM75.9 °F17.1 °F11 %29.72 in10.0 miWest (280°)19.6 mph25.3 mphPartly Cloudy
Hourly data recorded from KELP, located miles away from El Paso, Texas







STORIES FROM OUR PARTNERS